Location: Poughquag
(41.6090°N, 73.6820°W)
Time: 08:49:48
(UTC-05:00)

Vanguard 1 - Pass Details

Date: 06 December 2023
Orbit: 653 x 3826 km, 34.3° (Epoch: 25 February)

Event Time Altitude Azimuth Distance (km) Brightness Sun altitude
Rises 14:15:46 0° 179° (S) 4,644 14.4 17.1°
Reaches altitude 10° 14:20:14 10° 158° (SSE) 4,202 13.8 16.6°
Maximum altitude 14:26:39 16° 125° (SE) 4,425 13.4 15.8°
Drops below altitude 10° 14:34:59 10° 94° (E) 5,742 13.7 14.9°
Sets 14:43:06 0° 78° (ENE) 7,371 14.0 13.9°
